Regional Weather Roundup
Issued by NWS Sterling, VA

Home | Current Version | Previous Version | Text Only | Print | Product List | Glossary On
Versions: 1 2 3 4 5 6 7 8 9 10 11 12 13 14 15 16 17 18 19 20 21 22 23 24 25 26 27 28 29 30 31 32 33 34 35 36 37 38 39 40 41 42 43 44 45 46 47 48 49 50
000
ASUS41 KLWX 261810
RWRLWX

REGIONAL WEATHER ROUNDUP
NATIONAL WEATHER SERVICE BALTIMORE MD/WASHINGTON DC
100 PM EST FRI DEC 26 2014

Note: "FAIR" indicates few or no clouds below 12,000 feet
with no significant weather and/or obstructions to visibility.
 TC=TEMPERATURE CELSIUS

 * =Non NWS site. Station does not report precipitation (e.g. rain,
    snow, etc.), thunder, or fog.

DCZ001-MDZ009-015-VAZ040>042-051-053>054-261900-
WASHINGTON METRO

CITY           SKY/WX    TMP DP  RH WIND       PRES   REMARKS
WASHINGTON NAT FAIR      51  34  52 S10       30.29F
DULLES         FAIR      49  31  49 SW7       30.28F
ANDREWS AFB    FAIR      50  31  48 W9        30.28F
FT BELVOIR     FAIR      50  31  49 VRB2      30.30F
QUANTICO       FAIR      47  36  65 S8        30.30F
COLLEGE PARK*  FAIR      52  30  43 CALM      30.28F
LEESBURG*      FAIR      52  34  50 W7        30.28F
MANASSAS*      SUNNY     48  34  57 SW6       30.29F
GAITHERSBURG*  FAIR      48  30  49 W9        30.30F

$$

MDZ006>007-011-014-261900-
BALTIMORE METRO

CITY           SKY/WX    TMP DP  RH WIND       PRES   REMARKS
BWI AIRPORT    FAIR      51  31  46 W8        30.27F
MD SCIENCE CTR   N/A     52  31  44 MISG      30.30S
MARTIN STATE   SUNNY     52  36  54 SW6       30.29F
ANNAPOLIS      FAIR      52  29  41 SW6       30.28F
FORT MEADE*    FAIR      50  30  46 W6        30.30F

$$

MDZ012-015-019>023-261900-
MARYLAND EASTERN SHORE

CITY           SKY/WX    TMP DP  RH WIND       PRES   REMARKS
OCEAN CITY     FAIR      50  32  50 W7        30.28F
SALISBURY      FAIR      52  32  46 W8        30.28F
BAY BRIDGE AP*   N/A     50  30  46 W3        30.28F
CAMBRIDGE*     FAIR      52  32  46 NW6       30.28F
EASTON*        SUNNY     52  32  46 W6        30.31F

$$

MDZ017>025-261900-
SOUTHERN MARYLAND

CITY           SKY/WX    TMP DP  RH WIND       PRES   REMARKS
PATUXENT RIVER PTSUNNY   47  31  53 E5        30.30F
ST INIGOES     FAIR      48  34  58 SW6       30.30F
LEONARDTOWN*   FAIR      50  32  50 W8        30.31F

$$

MDZ003>005-261900-
NORTH CENTRAL MARYLAND

CITY           SKY/WX    TMP DP  RH WIND       PRES   REMARKS
FREDERICK*     SUNNY     52  28  40 W7        30.29F
HAGERSTOWN APT FAIR      47  30  51 SW6       30.25F
WESTMINSTER*   FAIR      46  32  57 W6        30.25F

$$

MDZ501>502-261900-
WESTERN MARYLAND

CITY           SKY/WX    TMP DP  RH WIND       PRES   REMARKS
OAKLAND*       FAIR      43  27  52 SW9       30.19F
CUMBERLAND*    FAIR      50  32  50 CALM      30.27F

$$

VAZ025>031-261900-
SHENANDOAH VALLEY

CITY           SKY/WX    TMP DP  RH WIND       PRES   REMARKS
WINCHESTER*    FAIR      50  25  37 CALM      30.26F
FRONT ROYAL*   FAIR      48  32  53 CALM      30.25F
LURAY*         FAIR      52  34  50 CALM      30.25F
NEW MARKET*    FAIR      48  34  58 CALM      30.25F
STAUNTON*      FAIR      49  32  51 CALM      30.26F
WAYNESBORO*    FAIR      53  24  32 W5        30.24F

$$

WVZ021-048>050-054>055-261900-
EASTERN WEST VIRGINIA PANHANDLE

CITY           SKY/WX    TMP DP  RH WIND       PRES   REMARKS
MARTINSBURG    FAIR      50  29  44 VRB5      30.26F
PETERSBURG*    FAIR      49  26  41 CALM      30.24F

$$

VAZ036>039-050-261900-
CENTRAL FOOTHILLS

CITY           SKY/WX    TMP DP  RH WIND       PRES   REMARKS
CHARLOTTESVILL FAIR      49  30  48 W3        30.27F
CULPEPER*      FAIR      52  32  46 CALM      30.29F
ORANGE*        FAIR      50  32  50 CALM      30.29F
GORDONSVILLE*  FAIR      48  31  52 CALM      30.28F
WARRENTON*     FAIR      52  38  59 SW6       30.28F

$$

VAZ055>057-261900-
NORTH AND CENTRAL PIEDMONT

CITY           SKY/WX    TMP DP  RH WIND       PRES   REMARKS
FREDERICKSBRG* FAIR      51  33  49 SW6       30.29F
STAFFORD*      FAIR      51  31  46 CALM      30.33F

$$

NCZ024-NYZ072-PAZ021-071-VAZ022-071-261900-
OTHER REGIONAL OBSERVATIONS

CITY           SKY/WX    TMP DP  RH WIND       PRES   REMARKS
NEW YORK CITY  FAIR      49  27  42 NW6       30.23F
PHILADELPHIA   FAIR      48  30  49 SW10      30.25F
PITTSBURGH     FAIR      45  32  60 S10       30.20F
ROANOKE        FAIR      54  26  34 W6        30.28F
RICHMOND       PTSUNNY   54  33  45 S6        30.29F
RALEIGH        FAIR      56  35  45 SW8       30.31F

$$

ANZ530>537-261900-
MARINE OBSERVATIONS

STATION/POSITION TIME  TEMP    WIND        PRES
                       AIR SEA DIR/SP/G
                 (UTC) (F)     (DEG/KT/KT) (MB)
THOMAS PT LIGHT  1800   43 42  150/  6/  6 1026.4F
BALT KEY BRIDGE  1800   45     110/  3/  3 1025.1F
COVE POINT       1800   43     180/  4/  4 1025.9F
LEWISETTA        1800   46 45   60/  3/  3 1025.8F
SOLOMONS ISLAND  1800      44                N/A
PINEY POINT      1800          300/  1/  1   N/A

$$



USA.gov is the U.S. government's official web portal to all federal, state and local government web resources and services.